When you browse on this site, cookies collect data to enhance your experience and personalize the content and advertising you see.
Visit our Privacy Policy to learn more. By continuing to use the site, you agree to this use of cookies and data.
  • In Portugal
  • List of Countries
  • For 7 days
  • Water Temperature
  • Satellite Maps
  • Weather Map
  • Weather Widgets
  • user-avatar
    Login

    Hourly Weather Wierzelin

    Today, 24 April, Wednesday

    Time Temperature Precipitation Wind Pressure Humidity
    00:00 +11°C° 0 mm 7 mps 753 mmHg 56%
    01:00 +10°C° 0 mm 7 mps 753 mmHg 58%
    02:00 +10°C° 0 mm 6 mps 753 mmHg 60%
    03:00 +9°C° 0 mm 6 mps 752 mmHg 62%
    04:00 +9°C° 0 mm 6 mps 752 mmHg 63%
    05:00 +9°C° 0 mm 7 mps 752 mmHg 65%
    06:00 +10°C° 0 mm 7 mps 752 mmHg 66%
    07:00 +10°C° 0 mm 7 mps 753 mmHg 67%
    08:00 +12°C° 0 mm 7 mps 752 mmHg 64%
    09:00 +15°C° 0 mm 8 mps 752 mmHg 61%
    10:00 +17°C° 0 mm 8 mps 752 mmHg 58%
    11:00 +18°C° 0 mm 7 mps 752 mmHg 57%
    12:00 +18°C° 0 mm 7 mps 752 mmHg 55%
    13:00 +20°C° 0 mm 7 mps 752 mmHg 54%
    14:00 +20°C° 0 mm 7 mps 752 mmHg 56%
    15:00 +20°C° 0 mm 6 mps 752 mmHg 58%
    16:00 +19°C° 0 mm 5 mps 752 mmHg 60%
    17:00 +19°C° 0 mm 5 mps 752 mmHg 61%
    18:00 +19°C° 0 mm 5 mps 751 mmHg 62%
    19:00 +17°C° 0 mm 5 mps 751 mmHg 63%
    20:00 +16°C° 0 mm 5 mps 752 mmHg 66%
    21:00 +15°C° 0 mm 5 mps 752 mmHg 68%
    22:00 +15°C° 0 mm 5 mps 752 mmHg 71%
    23:00 +14°C° 0 mm 5 mps 752 mmHg 74%

    Tomorrow, 25 April, Thursday

    Time Temperature Precipitation Wind Pressure Humidity
    00:00 +13°C° 0 mm 4 mps 752 mmHg 77%
    01:00 +12°C° 0 mm 4 mps 752 mmHg 80%
    02:00 +12°C° 0 mm 4 mps 752 mmHg 80%
    03:00 +12°C° 0 mm 4 mps 752 mmHg 79%
    04:00 +12°C° 0 mm 4 mps 752 mmHg 79%
    05:00 +13°C° 0 mm 5 mps 752 mmHg 77%
    06:00 +14°C° 0 mm 5 mps 752 mmHg 75%
    07:00 +16°C° 0 mm 5 mps 752 mmHg 73%
    08:00 +17°C° 0 mm 5 mps 752 mmHg 68%
    09:00 +20°C° 0 mm 5 mps 752 mmHg 63%
    10:00 +21°C° 0 mm 5 mps 752 mmHg 57%
    11:00 +22°C° 0 mm 5 mps 752 mmHg 56%
    12:00 +22°C° 0 mm 5 mps 752 mmHg 54%
    13:00 +23°C° 0 mm 5 mps 751 mmHg 53%
    14:00 +22°C° 0 mm 4 mps 751 mmHg 53%
    15:00 +22°C° 0 mm 4 mps 751 mmHg 54%
    16:00 +22°C° 0 mm 3 mps 751 mmHg 55%
    17:00 +21°C° 0 mm 2 mps 751 mmHg 60%
    18:00 +19°C° 0 mm 2 mps 751 mmHg 65%
    19:00 +19°C° 0 mm 1 mps 751 mmHg 71%
    20:00 +18°C° 0 mm 1 mps 751 mmHg 74%
    21:00 +16°C° 0 mm 1 mps 751 mmHg 77%
    22:00 +15°C° 0 mm 2 mps 751 mmHg 81%
    23:00 +15°C° 0 mm 2 mps 751 mmHg 83%

    Day after tomorrow, 26 April, Friday

    Time Temperature Precipitation Wind Pressure Humidity
    00:00 +15°C° 0 mm 2 mps 751 mmHg 86%
    01:00 +14°C° 0 mm 2 mps 751 mmHg 89%
    02:00 +14°C° 0 mm 2 mps 751 mmHg 89%
    03:00 +14°C° 0 mm 2 mps 751 mmHg 89%
    04:00 +13°C° 0 mm 2 mps 750 mmHg 89%
    05:00 +15°C° 0 mm 2 mps 750 mmHg 83%
    06:00 +16°C° 0 mm 2 mps 750 mmHg 77%
    07:00 +18°C° 0 mm 2 mps 750 mmHg 72%
    08:00 +19°C° 0 mm 2 mps 750 mmHg 66%
    09:00 +21°C° 0 mm 2 mps 750 mmHg 60%
    10:00 +24°C° 0 mm 2 mps 749 mmHg 55%
    11:00 +24°C° 0 mm 3 mps 749 mmHg 52%
    12:00 +25°C° 0 mm 3 mps 749 mmHg 48%
    13:00 +26°C° 0 mm 3 mps 748 mmHg 45%
    14:00 +26°C° 0 mm 3 mps 748 mmHg 47%
    15:00 +25°C° 0 mm 2 mps 748 mmHg 48%
    16:00 +25°C° 0 mm 2 mps 748 mmHg 49%
    17:00 +23°C° 0 mm 1 mps 748 mmHg 53%
    18:00 +22°C° 0 mm 1 mps 748 mmHg 57%
    19:00 +18°C° 0 mm 0 mps 748 mmHg 62%
    20:00 +20°C° 0 mm 1 mps 748 mmHg 63%
    21:00 +19°C° 0 mm 1 mps 748 mmHg 65%
    22:00 +19°C° 0 mm 1 mps 748 mmHg 66%
    23:00 +18°C° 0 mm 1 mps 747 mmHg 69%

    27 April, Saturday

    Time Temperature Precipitation Wind Pressure Humidity
    00:00 +18°C° 0 mm 1 mps 747 mmHg 72%
    01:00 +16°C° 0 mm 1 mps 747 mmHg 76%
    02:00 +16°C° 0 mm 1 mps 747 mmHg 78%
    03:00 +15°C° 0 mm 1 mps 747 mmHg 80%
    04:00 +15°C° 0 mm 1 mps 747 mmHg 83%
    05:00 +16°C° 0 mm 2 mps 747 mmHg 81%
    06:00 +16°C° 0 mm 2 mps 747 mmHg 79%
    07:00 +17°C° 0 mm 3 mps 747 mmHg 77%
    08:00 +18°C° 0 mm 3 mps 747 mmHg 74%
    09:00 +20°C° 0 mm 4 mps 747 mmHg 72%
    10:00 +21°C° 0 mm 5 mps 747 mmHg 69%
    11:00 +20°C° 0 mm 5 mps 747 mmHg 72%
    12:00 +19°C° 0 mm 6 mps 747 mmHg 74%
    13:00 +17°C° 0 mm 6 mps 747 mmHg 76%
    14:00 +17°C° 0 mm 6 mps 747 mmHg 76%
    15:00 +17°C° 0 mm 6 mps 748 mmHg 75%
    16:00 +16°C° 0 mm 6 mps 748 mmHg 74%
    17:00 +15°C° 0 mm 6 mps 748 mmHg 75%
    18:00 +14°C° 0 mm 6 mps 749 mmHg 76%
    19:00 +11°C° 0 mm 6 mps 749 mmHg 77%
    20:00 +10°C° 0 mm 6 mps 750 mmHg 79%
    21:00 +9°C° 0 mm 5 mps 750 mmHg 80%
    22:00 +9°C° 0 mm 5 mps 751 mmHg 82%
    23:00 +9°C° 0 mm 5 mps 751 mmHg 81%

    28 April, Sunday

    Time Temperature Precipitation Wind Pressure Humidity
    00:00 +9°C° 0 mm 5 mps 751 mmHg 80%
    01:00 +9°C° 0 mm 5 mps 752 mmHg 79%
    02:00 +8°C° 0 mm 5 mps 752 mmHg 80%
    03:00 +8°C° 0 mm 5 mps 752 mmHg 81%
    04:00 +8°C° 0 mm 5 mps 752 mmHg 83%
    05:00 +8°C° 0 mm 5 mps 753 mmHg 82%
    06:00 +9°C° 0 mm 5 mps 753 mmHg 82%
    07:00 +9°C° 0 mm 5 mps 753 mmHg 81%
    08:00 +11°C° 0 mm 4 mps 754 mmHg 78%
    09:00 +11°C° 0 mm 4 mps 754 mmHg 75%
    10:00 +12°C° 0 mm 4 mps 754 mmHg 72%
    11:00 +13°C° 0 mm 3 mps 754 mmHg 69%
    12:00 +14°C° 0 mm 3 mps 754 mmHg 66%
    13:00 +16°C° 0 mm 3 mps 754 mmHg 63%
    14:00 +16°C° 0 mm 3 mps 754 mmHg 63%
    15:00 +16°C° 0 mm 3 mps 754 mmHg 63%
    16:00 +15°C° 0 mm 4 mps 754 mmHg 64%
    17:00 +14°C° 0 mm 3 mps 755 mmHg 67%
    18:00 +13°C° 0 mm 3 mps 755 mmHg 70%
    19:00 +12°C° 0 mm 3 mps 755 mmHg 73%
    20:00 +12°C° 0 mm 3 mps 755 mmHg 76%
    21:00 +11°C° 0 mm 3 mps 755 mmHg 78%
    22:00 +10°C° 0 mm 3 mps 756 mmHg 81%
    23:00 +10°C° 0 mm 3 mps 756 mmHg 81%

    29 April, Monday

    Time Temperature Precipitation Wind Pressure Humidity
    00:00 +10°C° 0 mm 3 mps 755 mmHg 82%
    01:00 +10°C° 0 mm 4 mps 755 mmHg 83%
    02:00 +10°C° 0.1 mm 4 mps 755 mmHg 85%
    03:00 +10°C° 0.1 mm 4 mps 755 mmHg 87%
    04:00 +10°C° 0.1 mm 4 mps 755 mmHg 89%
    05:00 +10°C° 0.1 mm 4 mps 755 mmHg 89%
    06:00 +10°C° 0.1 mm 5 mps 755 mmHg 89%
    07:00 +10°C° 0.1 mm 5 mps 755 mmHg 89%
    08:00 +10°C° 0.3 mm 5 mps 754 mmHg 89%
    09:00 +12°C° 0.3 mm 4 mps 754 mmHg 89%
    10:00 +13°C° 0.3 mm 4 mps 754 mmHg 88%
    11:00 +14°C° 0.1 mm 4 mps 754 mmHg 86%
    12:00 +16°C° 0.1 mm 3 mps 754 mmHg 84%
    13:00 +17°C° 0.1 mm 3 mps 753 mmHg 83%
    14:00 +18°C° 0.6 mm 3 mps 753 mmHg 77%
    15:00 +19°C° 0.6 mm 4 mps 753 mmHg 72%
    16:00 +20°C° 0.6 mm 4 mps 753 mmHg 67%
    17:00 +19°C° 0.1 mm 4 mps 753 mmHg 74%
    18:00 +17°C° 0.1 mm 3 mps 753 mmHg 81%
    19:00 +16°C° 0.1 mm 3 mps 753 mmHg 88%
    20:00 +14°C° 0 mm 3 mps 753 mmHg 90%
    21:00 +13°C° 0 mm 3 mps 754 mmHg 91%
    22:00 +11°C° 0 mm 3 mps 754 mmHg 93%
    23:00 +11°C° 0 mm 3 mps 754 mmHg 93%
    Show more